Zurück zum Katalog

FENGYUN 1C DEB

AktivPO
NORAD 47029·DEBRIS·🇨🇳 China

Gestartet May 10, 1999 von Taiyuan Satellite Launch Center

Loading…

Nächste Überflüge (nächste 24 Stunden)

TLE

AktuellSource: Space-Track

Epoche: Sep 12, 2026, 10:06 UTC

1 47029U 99025FBF 26255.42131617  .00028049  00000-0  13046-2 0  9991
2 47029  98.9248 306.4739 0094073 165.6520 194.7414 15.15999669 72003

Verfolge FENGYUN 1C DEB in Echtzeit mit AllMySat

Download on the App Store